This demonstration page uses our WeatherBlox Daily Observations layout. Learn more.

Left ArrowRight Arrow

38.80484, -77.04692

Hourly Observations for September 7, 2020

Temp ( °F °C ) Dew Point ( °F °C ) Humidity (%) Winds ( mph kmh ) Pressure ( in mb ) Visibility ( mi km ) Precip ( " mm )
12:52 am 00:52 Mostly Cloudy 70 21.1 63 17.2 79 79 S 8 13 30.13 1020 10 16 N/A
1:52 am 01:52 Partly Cloudy 68 20 61 16.1 78 78 SSW 6 9 30.12 1020 10 16 N/A
2:52 am 02:52 Mostly Cloudy 68 20 62 16.7 81 81 S 6 9 30.10 1019 10 16 N/A
3:52 am 03:52 Mostly Cloudy 68 20 62 16.7 81 81 N N/A 30.09 1019 10 16 N/A
4:52 am 04:52 Mostly Cloudy 66 18.9 61 16.1 84 84 SW 3 6 30.09 1019 10 16 N/A
5:52 am 05:52 Partly Cloudy 67 19.4 61 16.1 81 81 N N/A 30.07 1018 10 16 N/A
6:52 am 06:52 Partly Cloudy 65 18.3 61 16.1 87 87 N N/A 30.10 1019 10 16 N/A
7:52 am 07:52 Partly Cloudy 67 19.4 63 17.2 87 87 S 3 6 30.11 1020 10 16 N/A
8:52 am 08:52 Mostly Sunny 70 21.1 64 17.8 82 82 S 6 9 30.11 1020 10 16 N/A
9:52 am 09:52 Mostly Sunny 73 22.8 64 17.8 74 74 S 3 6 30.12 1020 10 16 N/A
10:52 am 10:52 Mostly Sunny 76 24.4 60 15.6 58 58 SSE 6 9 30.11 1020 10 16 N/A
11:52 am 11:52 Mostly Sunny 78 25.6 62 16.7 58 58 SE 3 6 30.10 1019 10 16 N/A
12:52 pm 12:52 Mostly Sunny 80 26.7 58 14.4 47 47 SSE 5 7 30.08 1019 10 16 N/A
1:52 pm 13:52 Mostly Sunny 81 27.2 60 15.6 49 49 S 9 15 30.05 1018 10 16 N/A
2:52 pm 14:52 Mostly Sunny 82 27.8 61 16.1 49 49 SSW 8 13 30.03 1017 10 16 N/A
3:52 pm 15:52 Mostly Sunny 83 28.3 63 17.2 51 51 S 8 13 30.02 1017 10 16 N/A
4:52 pm 16:52 Mostly Sunny 82 27.8 62 16.7 51 51 S 8 13 30.00 1016 10 16 N/A
5:52 pm 17:52 Mostly Sunny 80 26.7 63 17.2 56 56 SSE 7 11 30.00 1016 10 16 N/A
6:52 pm 18:52 Partly Cloudy 78 25.6 63 17.2 60 60 SE 9 15 30.01 1016 10 16 N/A
7:52 pm 19:52 Partly Cloudy 76 24.4 59 15 56 56 SSE 7 11 30.03 1017 10 16 N/A
8:52 pm 20:52 Partly Cloudy 75 23.9 60 15.6 60 60 S 5 7 30.06 1018 10 16 N/A
9:52 pm 21:52 Partly Cloudy 74 23.3 60 15.6 62 62 SSE 3 6 30.08 1019 10 16 N/A
10:52 pm 22:52 Partly Cloudy 72 22.2 56 13.3 57 57 SSE 5 7 30.09 1019 10 16 N/A
11:52 pm 23:52 Mostly Cloudy 71 21.7 60 15.6 68 68 SW 5 7 30.08 1019 10 16 N/A

Powered by AerisWeather